Location: Saint-Restitut
(44.3351°N, 4.7915°E)
Time: 21:17:15
(UTC+00:00)

DMSP 5D-2 F13 DEB - Visible Passes

Search period start: 27 February 2024 00:00
Search period end: 08 March 2024 00:00
Orbit: 798 x 830 km, 98.9° (Epoch: 26 February)

Date Brightness Start Highest point End Pass type
(mag) Time Alt. Az. Time Alt. Az. Time Alt. Az.
27 Feb ? 05:30:57 10° NE 05:35:33 29° E 05:40:05 10° SSE visible
27 Feb ? 18:34:56 10° SW 18:38:55 21° W 18:42:56 10° NW visible
28 Feb ? 05:09:13 10° NE 05:12:52 19° E 05:16:29 10° SE visible
28 Feb ? 18:11:29 10° SSW 18:16:15 32° W 18:21:05 10° NNW visible
29 Feb ? 04:48:31 10° ENE 04:50:05 11° E 04:51:39 10° ESE visible
29 Feb ? 17:48:26 10° S 17:53:40 50° W 17:58:56 10° NNW visible
01 Mar ? 19:11:18 10° W 19:11:54 10° W 19:12:31 10° W visible
02 Mar ? 05:40:50 10° NNE 05:45:41 35° E 05:50:28 10° SSE visible
02 Mar ? 18:45:39 10° SW 18:49:05 17° W 18:52:33 10° NW visible
03 Mar ? 05:18:52 10° NE 05:22:59 22° E 05:27:03 10° SE visible
03 Mar ? 18:21:50 10° SSW 18:26:20 27° W 18:30:51 10° NW visible
04 Mar ? 04:57:29 10° ENE 05:00:11 14° E 05:02:53 10° ESE visible
04 Mar ? 17:58:36 10° SSW 18:03:39 41° W 18:08:45 10° NNW visible
06 Mar ? 18:56:21 10° WSW 18:59:03 14° W 19:01:45 10° WNW visible
07 Mar ? 05:28:25 10° NE 05:32:52 27° E 05:37:16 10° SSE visible
07 Mar ? 18:32:06 10° SW 18:36:13 22° W 18:40:21 10° NW visible
